CHUBUSAT-1 (40300 NORAD) Tracking and Keplerian Element Data

This shows tracking and keplerian element data for the satellite.

Feedback or suggestion? Click here.




ElementValue
Catalog40300
NameCHUBUSAT-1
Epoch Orbit35538
Epoch Day91.76979214
Epoch Year2021
RAAN157.7842
Inclination97.2498
Eccentricity0.0017971
Argument of Perigee279.761
Mean Anonmoly221.0369
Mean Motion15.23053359
Decay Rate8.95E-06
L11 40300U 14070C 21091.76979214 .00000895 00000-0 40783-4 0 9995
L22 40300 97.2498 157.7842 0017971 279.7610 221.0369 15.23053359355382



Live tracking and technical data element details for CHUBUSAT-1 (NORAD 40300). CHUBUSAT-1 can be tracked NOW for your location showing map with azimuth and elevation plus other details from your city location.







IsCatalogInMostPopularTable: catalog: 40300, numindb: 387
Update: records affected: 1



GetName: 40300 CHUBUSAT-1

Hit Count: updated at: Mon, 28 Nov 2022 04:10:05 GMT